Location: Capvern
(43.1036°N, 0.3160°E)
Time: 22:59:33
(UTC+00:00)

Cosmos 494 Rocket - Pass Details

Date: 16 October 2021
Orbit: 743 x 770 km, 74.1° (Epoch: 04 December)

Event Time Altitude Azimuth Distance (km) Brightness Sun altitude
Rises 17:45:56 0° 344° (NNW) 3,240 7.4 -6.6°
Reaches altitude 10° 17:48:24 10° 349° (N) 2,306 6.6 -7.0°
Maximum altitude 17:53:29 50° 65° (ENE) 959 4.2 -7.9°
Drops below altitude 10° 17:58:29 10° 141° (SE) 2,273 6.1 -8.8°
Sets 18:00:54 0° 147° (SSE) 3,190 6.9 -9.3°
